Change the Weather History Date:

Friday, July 19, 2013

  Actual Average Record
Temperature  
Mean Temperature 82 °F 82 °F  
Max Temperature 91 °F 92 °F 105 °F (2000)
Min Temperature 72 °F 72 °F 60 °F (2009)
Cooling Degree Days 17    
Growing Degree Days 32 (Base 50)    
Moisture  
Dew Point 72 °F    
Average Humidity 73    
Maximum Humidity 94    
Minimum Humidity 52    
Precipitation  
Precipitation 0.00 in 0.14 in 0.71 in (1981)
Month to date precipitation 5.56 2.80  
Year to date precipitation 33.20 30.97  
Sea Level Pressure  
Sea Level Pressure 30.04 in    
Wind  
Wind Speed 3 mph (SSW)    
Max Wind Speed 10 mph    
Max Gust Speed 13 mph    
Visibility 10 miles    
Events Thunderstorm    
T = Trace of Precipitation, MM = Missing Value Source: NWS Daily Summary

Daily Weather History Graph

Daily Weather History Graph

Search for Another Location

Airport or City:

Trip Planner

Search our weather history database for the weather conditions in past years. The results will help you decide how hot, cold, wet, or windy it might be!

Date:

Astronomy

Jul. 19, 2013 Rise Set
Actual Time 5:54 AM CDT 7:58 PM CDT
Civil Twilight 5:26 AM CDT 8:26 PM CDT
Nautical Twilight 4:52 AM CDT 9:00 PM CDT
Astronomical Twilight 4:16 AM CDT 9:36 PM CDT
Moon 5:00 PM CDT (7/19) 2:34 AM CDT (7/19)
Length of Visible Light 14h 59m
Length of Day
14h 03m
Waxing Gibbous, 87% of the Moon is Illuminated
Jul 19
Waxing Gibbous
Jul 22
Full
Jul 29
Last Quarter
Aug 6
New
Aug 14
First Quarter

Hourly Weather History & Observations

Time (CDT) Temp. Heat Index Dew Point Humidity Pressure Visibility Wind Dir Wind Speed Gust Speed Precip Events Conditions
12:53 AM 77.0 °F - 73.9 °F 90% 30.06 in 10.0 mi Calm Calm - N/A   Clear
1:53 AM 75.9 °F - 73.0 °F 91% 30.05 in 10.0 mi Calm Calm - N/A   Clear
2:53 AM 75.9 °F - 72.0 °F 87% 30.05 in 10.0 mi South 5.8 mph - N/A   Clear
3:53 AM 75.0 °F - 70.0 °F 84% 30.04 in 10.0 mi Calm Calm - N/A   Clear
4:53 AM 73.9 °F - 70.0 °F 87% 30.05 in 10.0 mi Calm Calm - N/A   Clear
5:53 AM 73.0 °F - 70.0 °F 90% 30.07 in 8.0 mi Calm Calm - N/A   Clear
6:53 AM 73.9 °F - 72.0 °F 93% 30.09 in 8.0 mi Calm Calm - N/A   Clear
7:53 AM 77.0 °F - 71.1 °F 82% 30.11 in 10.0 mi SSW 3.5 mph - N/A   Clear
8:53 AM 79.0 °F - 72.0 °F 79% 30.11 in 10.0 mi South 4.6 mph - N/A   Clear
9:53 AM 82.0 °F 86.7 °F 72.0 °F 71% 30.11 in 10.0 mi Variable 3.5 mph - N/A   Clear
10:53 AM 84.9 °F 91.4 °F 73.0 °F 67% 30.10 in 10.0 mi SSW 4.6 mph - N/A   Clear
11:53 AM 87.1 °F 93.6 °F 72.0 °F 61% 30.08 in 10.0 mi South 4.6 mph - N/A   Clear
12:53 PM 89.1 °F 96.0 °F 72.0 °F 57% 30.06 in 10.0 mi Variable 4.6 mph - N/A   Partly Cloudy
1:53 PM 90.0 °F 94.5 °F 69.1 °F 50% 30.04 in 10.0 mi WSW 4.6 mph - N/A   Scattered Clouds
2:53 PM 90.0 °F 96.4 °F 71.1 °F 54% 30.01 in 10.0 mi South 5.8 mph - N/A   Mostly Cloudy
3:53 PM 91.0 °F 97.6 °F 71.1 °F 52% 30.00 in 10.0 mi WSW 6.9 mph - N/A   Clear
4:53 PM 91.0 °F 97.6 °F 71.1 °F 52% 29.98 in 10.0 mi SSW 5.8 mph - N/A   Clear
5:28 PM 89.6 °F 96.2 °F 71.6 °F 55% 29.97 in 10.0 mi SSW 9.2 mph - N/A Thunderstorm Thunderstorm
5:53 PM 88.0 °F 93.8 °F 71.1 °F 57% 29.98 in 10.0 mi SSW 5.8 mph - N/A Thunderstorm Thunderstorm
6:33 PM 87.8 °F 93.8 °F 71.6 °F 58% 29.97 in 10.0 mi SSW 3.5 mph - N/A   Partly Cloudy
6:53 PM 87.1 °F 94.5 °F 73.0 °F 63% 29.97 in 10.0 mi Calm Calm - N/A   Clear
7:53 PM 84.0 °F 91.2 °F 73.9 °F 72% 29.97 in 10.0 mi SSW 3.5 mph - N/A   Clear
8:53 PM 82.0 °F 88.6 °F 75.0 °F 79% 29.99 in 10.0 mi Calm Calm - N/A   Clear
9:53 PM 79.0 °F - 75.9 °F 90% 30.01 in 7.0 mi Calm Calm - N/A   Clear
10:53 PM 78.1 °F - 75.0 °F 90% 30.03 in 8.0 mi South 3.5 mph - N/A   Partly Cloudy
11:53 PM 78.1 °F - 72.0 °F 81% 30.03 in 10.0 mi SSW 5.8 mph - N/A   Clear